| time (UTC) | temp C | wind direction | speed KPH | gust KPH | rain 1hr cm | rain 24hr cm | rain mn cm | humidity % | barometer mb |
| 20260903050046 | 17 | 161 | 0.0 | 0.0 | 0.00 | 0.00 | 0.00 | 92 | 1018.9 |
| 20260903045544 | 17 | 169 | 0.0 | 1.6 | 0.00 | 0.00 | 0.00 | 91 | 1018.9 |
| 20260903045042 | 17 | 163 | 0.0 | 0.0 | 0.00 | 0.00 | 0.00 | 90 | 1018.8 |
| 20260903044537 | 17 | 166 | 0.0 | 0.0 | 0.00 | 0.00 | 0.00 | 90 | 1019.0 |
| 20260903044032 | 17 | 151 | 0.0 | 0.0 | 0.00 | 0.00 | 0.00 | 89 | 1018.9 |
| 20260903043528 | 17 | 178 | 1.6 | 1.6 | 0.00 | 0.00 | 0.00 | 90 | 1019.0 |
| 20260903043027 | 17 | 193 | 0.0 | 0.0 | 0.00 | 0.00 | 0.00 | 89 | 1019.0 |
| 20260903042521 | 17 | 159 | 0.0 | 0.0 | 0.00 | 0.00 | 0.00 | 88 | 1018.9 |
| 20260903042017 | 17 | 177 | 0.0 | 0.0 | 0.00 | 0.00 | 0.00 | 88 | 1018.9 |
| 20260903041515 | 17 | 165 | 0.0 | 0.0 | 0.00 | 0.00 | 0.00 | 87 | 1019.1 |
| 20260903041014 | 17 | 174 | 0.0 | 1.6 | 0.00 | 0.00 | 0.00 | 87 | 1018.9 |
| 20260903040513 | 17 | 169 | 0.0 | 1.6 | 0.00 | 0.00 | 0.00 | 86 | 1019.0 |
| 20260903040010 | 17 | 212 | 0.0 | 3.2 | 0.00 | 0.00 | 0.00 | 86 | 1018.8 |
| 20260903035505 | 17 | 158 | 0.0 | 1.6 | 0.00 | 0.00 | 0.00 | 86 | 1018.8 |
| 20260903035000 | 18 | 153 | 0.0 | 0.0 | 0.00 | 0.00 | 0.00 | 85 | 1018.6 |
| 20260903034455 | 18 | 183 | 1.6 | 3.2 | 0.00 | 0.00 | 0.00 | 85 | 1018.5 |
| 20260903033955 | 18 | 180 | 1.6 | 3.2 | 0.00 | 0.00 | 0.00 | 84 | 1018.7 |
| 20260903033451 | 18 | 203 | 3.2 | 3.2 | 0.00 | 0.00 | 0.00 | 83 | 1018.4 |
| 20260903032946 | 18 | 163 | 0.0 | 0.0 | 0.00 | 0.00 | 0.00 | 81 | 1018.6 |
| 20260903032436 | 18 | 194 | 1.6 | 1.6 | 0.00 | 0.00 | 0.00 | 81 | 1018.6 |
| 20260903031931 | 18 | 183 | 0.0 | 0.0 | 0.00 | 0.00 | 0.00 | 79 | 1018.8 |
| 20260903031430 | 19 | 181 | 0.0 | 0.0 | 0.00 | 0.00 | 0.00 | 77 | 1018.5 |
| 20260903030925 | 19 | 170 | 0.0 | 1.6 | 0.00 | 0.00 | 0.00 | 76 | 1018.4 |
| 20260903030416 | 19 | 153 | 0.0 | 0.0 | 0.00 | 0.00 | 0.00 | 74 | 1018.3 |
| 20260903025912 | 20 | 166 | 0.0 | 1.6 | 0.00 | 0.00 | 0.00 | 71 | 1018.3 |
| 20260903025408 | 20 | 158 | 0.0 | 0.0 | 0.00 | 0.00 | 0.00 | 69 | 1018.3 |
| 20260903024903 | 20 | 161 | 0.0 | 1.6 | 0.00 | 0.00 | 0.00 | 67 | 1018.3 |
| 20260903024401 | 20 | 205 | 1.6 | 1.6 | 0.00 | 0.00 | 0.00 | 66 | 1018.5 |
| 20260903023856 | 20 | 166 | 1.6 | 3.2 | 0.00 | 0.00 | 0.00 | 65 | 1018.3 |
| 20260903023352 | 20 | 187 | 1.6 | 4.8 | 0.00 | 0.00 | 0.00 | 64 | 1018.5 |
| 20260903022847 | 20 | 175 | 0.0 | 0.0 | 0.00 | 0.00 | 0.00 | 62 | 1018.3 |
| 20260903022346 | 21 | 143 | 3.2 | 4.8 | 0.00 | 0.00 | 0.00 | 62 | 1018.4 |
| 20260903021845 | 21 | 204 | 1.6 | 4.8 | 0.00 | 0.00 | 0.00 | 61 | 1018.3 |
| 20260903021341 | 21 | 148 | 0.0 | 3.2 | 0.00 | 0.00 | 0.00 | 61 | 1018.4 |
| 20260903020841 | 21 | 135 | 0.0 | 3.2 | 0.00 | 0.00 | 0.00 | 61 | 1018.2 |
| 20260903020337 | 21 | 136 | 3.2 | 4.8 | 0.00 | 0.00 | 0.00 | 59 | 1018.2 |
| 20260903015836 | 21 | 179 | 1.6 | 4.8 | 0.00 | 0.00 | 0.00 | 58 | 1018.3 |
| 20260903015332 | 21 | 176 | 3.2 | 9.7 | 0.00 | 0.00 | 0.00 | 57 | 1018.2 |
| 20260903014828 | 21 | 226 | 3.2 | 3.2 | 0.00 | 0.00 | 0.00 | 55 | 1018.4 |
| 20260903014327 | 22 | 173 | 0.0 | 9.7 | 0.00 | 0.00 | 0.00 | 54 | 1018.3 |
| 20260903013822 | 22 | 238 | 6.4 | 9.7 | 0.00 | 0.00 | 0.00 | 53 | 1018.4 |
| 20260903013321 | 22 | 249 | 1.6 | 3.2 | 0.00 | 0.00 | 0.00 | 53 | 1018.5 |
| 20260903012820 | 22 | 167 | 3.2 | 6.4 | 0.00 | 0.00 | 0.00 | 53 | 1018.5 |
| 20260903012315 | 22 | 218 | 3.2 | 4.8 | 0.00 | 0.00 | 0.00 | 53 | 1018.3 |
| 20260903011809 | 23 | 182 | 4.8 | 9.7 | 0.00 | 0.00 | 0.00 | 53 | 1018.3 |
| 20260903011308 | 23 | 209 | 6.4 | 11.3 | 0.00 | 0.00 | 0.00 | 54 | 1018.3 |
| 20260903010803 | 23 | 114 | 3.2 | 4.8 | 0.00 | 0.00 | 0.00 | 53 | 1018.2 |
| 20260903010259 | 23 | 176 | 1.6 | 6.4 | 0.00 | 0.00 | 0.00 | 52 | 1018.3 |
| 20260903005757 | 23 | 258 | 3.2 | 9.7 | 0.00 | 0.00 | 0.00 | 52 | 1018.3 |
| 20260903005247 | 23 | 261 | 6.4 | 9.7 | 0.00 | 0.00 | 0.00 | 52 | 1018.3 |
| 20260903004742 | 23 | 220 | 4.8 | 6.4 | 0.00 | 0.00 | 0.00 | 52 | 1018.3 |
| 20260903004237 | 23 | 146 | 3.2 | 9.7 | 0.00 | 0.00 | 0.00 | 52 | 1018.3 |
| 20260903003733 | 24 | 325 | 6.4 | 11.3 | 0.00 | 0.00 | 0.00 | 51 | 1018.3 |
| 20260903003228 | 25 | 174 | 4.8 | 11.3 | 0.00 | 0.00 | 0.00 | 50 | 1018.2 |
| 20260903002723 | 25 | 284 | 4.8 | 12.9 | 0.00 | 0.00 | 0.00 | 49 | 1018.2 |
| 20260903002217 | 25 | 178 | 3.2 | 3.2 | 0.00 | 0.00 | 0.00 | 50 | 1018.3 |
| 20260903001713 | 25 | 193 | 4.8 | 6.4 | 0.00 | 0.00 | 0.00 | 49 | 1018.4 |
| 20260903001206 | 25 | 200 | 3.2 | 4.8 | 0.00 | 0.00 | 0.00 | 48 | 1018.3 |
| 20260903000702 | 25 | 260 | 3.2 | 12.9 | 0.00 | 0.00 | 0.00 | 47 | 1018.3 |
| 20260903000201 | 25 | 250 | 3.2 | 12.9 | 0.00 | 0.00 | 0.00 | 46 | 1018.4 |
| 20260902235654 | 25 | 177 | 9.7 | 14.5 | 0.00 | 0.00 | 0.00 | 42 | 1018.3 |
| 20260902235150 | 25 | 251 | 4.8 | 14.5 | 0.00 | 0.00 | 0.00 | 43 | 1018.5 |
| 20260902234644 | 25 | 159 | 3.2 | 9.7 | 0.00 | 0.00 | 0.00 | 43 | 1018.3 |
| 20260902234143 | 25 | 301 | 3.2 | 12.9 | 0.00 | 0.00 | 0.00 | 43 | 1018.5 |
| 20260902233637 | 25 | 250 | 6.4 | 11.3 | 0.00 | 0.00 | 0.00 | 44 | 1018.4 |
| 20260902233131 | 25 | 176 | 1.6 | 4.8 | 0.00 | 0.00 | 0.00 | 45 | 1018.2 |
| 20260902232631 | 25 | 228 | 1.6 | 6.4 | 0.00 | 0.00 | 0.00 | 51 | 1018.6 |
| 20260902232130 | 25 | 274 | 6.4 | 14.5 | 0.00 | 0.00 | 0.00 | 52 | 1018.6 |
| 20260902231624 | 25 | 251 | 6.4 | 11.3 | 0.00 | 0.00 | 0.00 | 53 | 1018.5 |
| 20260902231124 | 25 | 186 | 4.8 | 22.5 | 0.00 | 0.00 | 0.00 | 54 | 1018.4 |
| 20260902230620 | 25 | 116 | 3.2 | 11.3 | 0.00 | 0.00 | 0.00 | 55 | 1018.5 |
| 20260902230118 | 25 | 276 | 6.4 | 9.7 | 0.00 | 0.00 | 0.00 | 55 | 1018.5 |
| 20260902225613 | 25 | 271 | 4.8 | 12.9 | 0.00 | 0.00 | 0.00 | 55 | 1018.5 |
| 20260902225113 | 26 | 127 | 1.6 | 3.2 | 0.00 | 0.00 | 0.00 | 54 | 1018.6 |
| 20260902224612 | 25 | 209 | 3.2 | 11.3 | 0.00 | 0.00 | 0.00 | 56 | 1018.7 |
| 20260902224107 | 25 | 144 | 9.7 | 20.9 | 0.00 | 0.00 | 0.00 | 57 | 1018.6 |
| 20260902223604 | 26 | 256 | 6.4 | 11.3 | 0.00 | 0.00 | 0.00 | 56 | 1018.8 |
| 20260902223103 | 26 | 277 | 6.4 | 12.9 | 0.00 | 0.00 | 0.00 | 56 | 1018.9 |
| 20260902222601 | 26 | 299 | 3.2 | 9.7 | 0.00 | 0.00 | 0.00 | 56 | 1018.8 |
| 20260902222100 | 26 | 195 | 1.6 | 6.4 | 0.00 | 0.00 | 0.00 | 55 | 1018.8 |
| 20260902221556 | 26 | 272 | 8.0 | 14.5 | 0.00 | 0.00 | 0.00 | 55 | 1019.1 |
| 20260902221056 | 25 | 221 | 6.4 | 9.7 | 0.00 | 0.00 | 0.00 | 57 | 1019.0 |
| 20260902220551 | 26 | 187 | 1.6 | 6.4 | 0.00 | 0.00 | 0.00 | 55 | 1019.0 |
| 20260902220046 | 26 | 207 | 8.0 | 11.3 | 0.00 | 0.00 | 0.00 | 55 | 1019.1 |
| 20260902215543 | 26 | 231 | 3.2 | 9.7 | 0.00 | 0.00 | 0.00 | 55 | 1019.0 |
| 20260902215038 | 26 | 257 | 8.0 | 12.9 | 0.00 | 0.00 | 0.00 | 55 | 1019.0 |
| 20260902214537 | 26 | 186 | 8.0 | 12.9 | 0.00 | 0.00 | 0.00 | 54 | 1019.2 |
| 20260902214036 | 26 | 172 | 9.7 | 16.1 | 0.00 | 0.00 | 0.00 | 55 | 1019.0 |
| 20260902213532 | 26 | 276 | 3.2 | 12.9 | 0.00 | 0.00 | 0.00 | 57 | 1019.3 |
| 20260902213031 | 26 | 356 | 6.4 | 9.7 | 0.00 | 0.00 | 0.00 | 57 | 1019.0 |
| 20260902212527 | 26 | 278 | 6.4 | 12.9 | 0.00 | 0.00 | 0.00 | 57 | 1019.2 |
| 20260902212023 | 26 | 182 | 16.1 | 17.7 | 0.00 | 0.00 | 0.00 | 57 | 1019.4 |
| 20260902211519 | 26 | 184 | 3.2 | 16.1 | 0.00 | 0.00 | 0.00 | 56 | 1019.1 |
| 20260902211014 | 26 | 276 | 3.2 | 9.7 | 0.00 | 0.00 | 0.00 | 56 | 1019.4 |
| 20260902210509 | 26 | 146 | 0.0 | 6.4 | 0.00 | 0.00 | 0.00 | 57 | 1019.3 |
| 20260902210008 | 26 | 197 | 1.6 | 3.2 | 0.00 | 0.00 | 0.00 | 56 | 1019.3 |
| 20260902205502 | 26 | 269 | 8.0 | 12.9 | 0.00 | 0.00 | 0.00 | 58 | 1019.7 |
| 20260902204958 | 26 | 316 | 9.7 | 14.5 | 0.00 | 0.00 | 0.00 | 57 | 1019.4 |
| 20260902204457 | 25 | 184 | 1.6 | 14.5 | 0.00 | 0.00 | 0.00 | 59 | 1019.7 |
| 20260902203953 | 26 | 18 | 4.8 | 4.8 | 0.00 | 0.00 | 0.00 | 59 | 1019.6 |
| 20260902203449 | 26 | 116 | 1.6 | 4.8 | 0.00 | 0.00 | 0.00 | 57 | 1019.3 |
| 20260902202947 | 26 | 231 | 3.2 | 9.7 | 0.00 | 0.00 | 0.00 | 58 | 1019.3 |
| 20260902202443 | 25 | 174 | 3.2 | 4.8 | 0.00 | 0.00 | 0.00 | 59 | 1019.4 |
| 20260902201940 | 26 | 81 | 0.0 | 9.7 | 0.00 | 0.00 | 0.00 | 59 | 1019.6 |
| 20260902201435 | 26 | 17 | 1.6 | 12.9 | 0.00 | 0.00 | 0.00 | 57 | 1019.6 |
| 20260902200934 | 26 | 244 | 4.8 | 11.3 | 0.00 | 0.00 | 0.00 | 57 | 1019.9 |
| 20260902200429 | 26 | 226 | 6.4 | 11.3 | 0.00 | 0.00 | 0.00 | 58 | 1019.8 |
| 20260902195925 | 26 | 110 | 3.2 | 4.8 | 0.00 | 0.00 | 0.00 | 58 | 1019.7 |
| 20260902195421 | 25 | 41 | 0.0 | 11.3 | 0.00 | 0.00 | 0.00 | 58 | 1019.9 |
| 20260902194915 | 26 | 15 | 9.7 | 16.1 | 0.00 | 0.00 | 0.00 | 58 | 1020.1 |
| 20260902194414 | 26 | 51 | 1.6 | 4.8 | 0.00 | 0.00 | 0.00 | 59 | 1020.0 |
| 20260902193909 | 25 | 218 | 3.2 | 12.9 | 0.00 | 0.00 | 0.00 | 59 | 1020.2 |
| 20260902193405 | 26 | 242 | 6.4 | 11.3 | 0.00 | 0.00 | 0.00 | 59 | 1020.0 |
| 20260902192903 | 26 | 124 | 1.6 | 14.5 | 0.00 | 0.00 | 0.00 | 60 | 1019.8 |
| 20260902192402 | 26 | 309 | 3.2 | 4.8 | 0.00 | 0.00 | 0.00 | 60 | 1020.1 |
| 20260902191857 | 26 | 228 | 8.0 | 12.9 | 0.00 | 0.00 | 0.00 | 58 | 1020.0 |
| 20260902191352 | 26 | 197 | 1.6 | 4.8 | 0.00 | 0.00 | 0.00 | 57 | 1020.1 |
| 20260902190842 | 26 | 214 | 3.2 | 4.8 | 0.00 | 0.00 | 0.00 | 57 | 1020.2 |
| 20260902190341 | 26 | 65 | 3.2 | 3.2 | 0.00 | 0.00 | 0.00 | 57 | 1020.2 |
| 20260902185838 | 25 | 229 | 1.6 | 4.8 | 0.00 | 0.00 | 0.00 | 57 | 1020.1 |
| 20260902185332 | 25 | 353 | 3.2 | 6.4 | 0.00 | 0.00 | 0.00 | 56 | 1020.0 |
| 20260902184828 | 26 | 301 | 6.4 | 11.3 | 0.00 | 0.00 | 0.00 | 55 | 1020.2 |
| 20260902184324 | 26 | 236 | 3.2 | 4.8 | 0.00 | 0.00 | 0.00 | 54 | 1020.3 |
| 20260902183819 | 26 | 103 | 1.6 | 4.8 | 0.00 | 0.00 | 0.00 | 54 | 1020.0 |
| 20260902183315 | 25 | 156 | 0.0 | 3.2 | 0.00 | 0.00 | 0.00 | 54 | 1020.2 |
| 20260902182811 | 25 | 52 | 3.2 | 6.4 | 0.00 | 0.00 | 0.00 | 54 | 1020.3 |
| 20260902182307 | 25 | 65 | 1.6 | 4.8 | 0.00 | 0.00 | 0.00 | 54 | 1020.1 |
| 20260902181804 | 25 | 299 | 8.0 | 12.9 | 0.00 | 0.00 | 0.00 | 52 | 1020.4 |
| 20260902181303 | 25 | 271 | 3.2 | 11.3 | 0.00 | 0.00 | 0.00 | 53 | 1020.4 |
| 20260902180758 | 25 | 146 | 1.6 | 3.2 | 0.00 | 0.00 | 0.00 | 54 | 1020.3 |
| 20260902180253 | 25 | 233 | 3.2 | 4.8 | 0.00 | 0.00 | 0.00 | 53 | 1020.2 |
| 20260902175748 | 25 | 198 | 6.4 | 6.4 | 0.00 | 0.00 | 0.00 | 53 | 1020.3 |
| 20260902175244 | 25 | 253 | 4.8 | 4.8 | 0.00 | 0.00 | 0.00 | 52 | 1020.4 |
| 20260902174740 | 25 | 144 | 1.6 | 4.8 | 0.00 | 0.00 | 0.00 | 53 | 1020.3 |
| 20260902174236 | 25 | 94 | 0.0 | 1.6 | 0.00 | 0.00 | 0.00 | 55 | 1020.4 |
| 20260902173732 | 24 | 114 | 3.2 | 3.2 | 0.00 | 0.00 | 0.00 | 55 | 1020.2 |
| 20260902173231 | 24 | 84 | 4.8 | 4.8 | 0.00 | 0.00 | 0.00 | 56 | 1020.4 |
| 20260902172726 | 24 | 131 | 0.0 | 3.2 | 0.00 | 0.00 | 0.00 | 56 | 1020.4 |
| 20260902172226 | 24 | 198 | 3.2 | 4.8 | 0.00 | 0.00 | 0.00 | 54 | 1020.5 |
| 20260902171721 | 24 | 62 | 1.6 | 1.6 | 0.00 | 0.00 | 0.00 | 55 | 1020.1 |
| 20260902171216 | 23 | 299 | 1.6 | 3.2 | 0.00 | 0.00 | 0.00 | 56 | 1020.3 |
| 20260902170712 | 23 | 103 | 1.6 | 1.6 | 0.00 | 0.00 | 0.00 | 55 | 1020.1 |
| 20260902170207 | 23 | 136 | 1.6 | 3.2 | 0.00 | 0.00 | 0.00 | 57 | 1020.2 |
| 20260902165702 | 23 | 109 | 0.0 | 1.6 | 0.00 | 0.00 | 0.00 | 58 | 1020.4 |
| 20260902165156 | 22 | 72 | 0.0 | 3.2 | 0.00 | 0.00 | 0.00 | 58 | 1020.1 |
| 20260902164652 | 23 | 46 | 0.0 | 3.2 | 0.00 | 0.00 | 0.00 | 58 | 1020.3 |
| 20260902164151 | 22 | 121 | 1.6 | 4.8 | 0.00 | 0.00 | 0.00 | 55 | 1020.0 |
| 20260902163646 | 22 | 84 | 0.0 | 1.6 | 0.00 | 0.00 | 0.00 | 55 | 1020.1 |
| 20260902163146 | 22 | 91 | 1.6 | 3.2 | 0.00 | 0.00 | 0.00 | 60 | 1020.2 |
| 20260902162644 | 22 | 112 | 1.6 | 3.2 | 0.00 | 0.00 | 0.00 | 60 | 1020.1 |
| 20260902162138 | 22 | 106 | 1.6 | 4.8 | 0.00 | 0.00 | 0.00 | 65 | 1020.0 |
| 20260902161634 | 21 | 135 | 1.6 | 3.2 | 0.00 | 0.00 | 0.00 | 64 | 1020.0 |
| 20260902161130 | 21 | 123 | 1.6 | 4.8 | 0.00 | 0.00 | 0.00 | 63 | 1019.9 |
| 20260902160626 | 21 | 78 | 0.0 | 1.6 | 0.00 | 0.00 | 0.00 | 67 | 1020.0 |
| 20260902160121 | 21 | 89 | 3.2 | 3.2 | 0.00 | 0.00 | 0.00 | 69 | 1020.0 |
| 20260902155619 | 21 | 90 | 3.2 | 3.2 | 0.00 | 0.00 | 0.00 | 72 | 1020.1 |
| 20260902155118 | 21 | 161 | 1.6 | 3.2 | 0.00 | 0.00 | 0.00 | 73 | 1020.0 |
| 20260902154614 | 20 | 128 | 3.2 | 4.8 | 0.00 | 0.00 | 0.00 | 74 | 1020.2 |
| 20260902154108 | 20 | 148 | 3.2 | 4.8 | 0.00 | 0.00 | 0.00 | 76 | 1020.1 |
| 20260902153607 | 20 | 123 | 1.6 | 4.8 | 0.00 | 0.00 | 0.00 | 77 | 1020.3 |
| 20260902153103 | 20 | 136 | 0.0 | 1.6 | 0.00 | 0.00 | 0.00 | 77 | 1020.1 |
| 20260902152559 | 20 | 153 | 3.2 | 4.8 | 0.00 | 0.00 | 0.00 | 77 | 1020.1 |
| 20260902152054 | 20 | 118 | 1.6 | 3.2 | 0.00 | 0.00 | 0.00 | 77 | 1020.2 |
| 20260902151549 | 19 | 122 | 0.0 | 1.6 | 0.00 | 0.00 | 0.00 | 80 | 1020.3 |
| 20260902151048 | 19 | 141 | 0.0 | 0.0 | 0.00 | 0.00 | 0.00 | 81 | 1020.2 |
| 20260902150544 | 18 | 141 | 0.0 | 1.6 | 0.00 | 0.00 | 0.00 | 82 | 1020.1 |
| 20260902150039 | 18 | 145 | 0.0 | 0.0 | 0.00 | 0.00 | 0.00 | 83 | 1019.9 |
| 20260902145529 | 17 | 117 | 1.6 | 3.2 | 0.00 | 0.00 | 0.00 | 85 | 1020.1 |
| 20260902145029 | 17 | 86 | 3.2 | 3.2 | 0.00 | 0.00 | 0.00 | 85 | 1020.0 |
| 20260902144526 | 17 | 115 | 3.2 | 4.8 | 0.00 | 0.00 | 0.00 | 86 | 1020.1 |
| 20260902144026 | 17 | 102 | 3.2 | 3.2 | 0.00 | 0.00 | 0.00 | 86 | 1020.1 |
| 20260902143520 | 17 | 95 | 3.2 | 3.2 | 0.00 | 0.00 | 0.00 | 86 | 1020.0 |
| 20260902143016 | 16 | 126 | 0.0 | 0.0 | 0.00 | 0.00 | 0.00 | 88 | 1020.1 |
| 20260902142512 | 16 | 111 | 0.0 | 0.0 | 0.00 | 0.00 | 0.00 | 88 | 1020.0 |
| 20260902142007 | 16 | 119 | 0.0 | 0.0 | 0.00 | 0.00 | 0.00 | 89 | 1020.1 |
| 20260902141501 | 15 | 130 | 0.0 | 0.0 | 0.00 | 0.00 | 0.00 | 92 | 1020.1 |
| 20260902140955 | 14 | 147 | 0.0 | 0.0 | 0.00 | 0.00 | 0.00 | 94 | 1019.9 |
| 20260902140451 | 13 | 148 | 0.0 | 0.0 | 0.00 | 0.00 | 0.00 | 95 | 1019.7 |
| 20260902135950 | 13 | 149 | 0.0 | 0.0 | 0.00 | 0.00 | 0.00 | 96 | 1019.7 |
| 20260902135446 | 13 | 135 | 0.0 | 0.0 | 0.00 | 0.00 | 0.00 | 96 | 1019.7 |
| 20260902134945 | 13 | 108 | 0.0 | 0.0 | 0.00 | 0.00 | 0.00 | 96 | 1019.7 |
| 20260902134441 | 13 | 118 | 0.0 | 0.0 | 0.00 | 0.00 | 0.00 | 96 | 1019.6 |
| 20260902133936 | 12 | 156 | 0.0 | 0.0 | 0.00 | 0.00 | 0.00 | 96 | 1019.4 |
| 20260902133431 | 12 | 140 | 0.0 | 0.0 | 0.00 | 0.00 | 0.00 | 96 | 1019.4 |
| 20260902132926 | 12 | 139 | 0.0 | 0.0 | 0.00 | 0.00 | 0.00 | 96 | 1019.6 |
| 20260902132421 | 12 | 152 | 0.0 | 0.0 | 0.00 | 0.00 | 0.00 | 96 | 1019.6 |
| 20260902131916 | 12 | 132 | 0.0 | 0.0 | 0.00 | 0.00 | 0.00 | 96 | 1019.3 |
| 20260902131413 | 12 | 134 | 0.0 | 0.0 | 0.00 | 0.00 | 0.00 | 96 | 1019.8 |
| 20260902130912 | 12 | 135 | 0.0 | 0.0 | 0.00 | 0.00 | 0.00 | 95 | 1019.3 |
| 20260902130408 | 12 | 135 | 0.0 | 0.0 | 0.00 | 0.00 | 0.00 | 95 | 1019.3 |
| 20260902125903 | 12 | 136 | 0.0 | 0.0 | 0.00 | 0.00 | 0.00 | 95 | 1019.4 |
| 20260902125359 | 12 | 140 | 0.0 | 0.0 | 0.00 | 0.00 | 0.00 | 95 | 1019.6 |
| 20260902124854 | 12 | 141 | 0.0 | 0.0 | 0.00 | 0.00 | 0.00 | 95 | 1019.3 |
| 20260902124350 | 12 | 141 | 0.0 | 0.0 | 0.00 | 0.00 | 0.00 | 95 | 1019.6 |
| 20260902123845 | 12 | 141 | 0.0 | 0.0 | 0.00 | 0.00 | 0.00 | 95 | 1019.3 |
| 20260902123342 | 12 | 141 | 0.0 | 0.0 | 0.00 | 0.00 | 0.00 | 94 | 1019.6 |
| 20260902122840 | 12 | 141 | 0.0 | 0.0 | 0.00 | 0.00 | 0.00 | 94 | 1019.4 |
| 20260902122336 | 13 | 137 | 0.0 | 0.0 | 0.00 | 0.00 | 0.00 | 94 | 1019.2 |
| 20260902121836 | 13 | 137 | 0.0 | 0.0 | 0.00 | 0.00 | 0.00 | 94 | 1019.3 |
| 20260902121331 | 13 | 137 | 0.0 | 0.0 | 0.00 | 0.00 | 0.00 | 93 | 1019.4 |
| 20260902120826 | 13 | 136 | 0.0 | 0.0 | 0.00 | 0.00 | 0.00 | 93 | 1019.4 |
| 20260902120323 | 13 | 153 | 0.0 | 0.0 | 0.00 | 0.00 | 0.00 | 93 | 1019.3 |
| 20260902115817 | 13 | 181 | 1.6 | 3.2 | 0.00 | 0.00 | 0.00 | 93 | 1019.3 |
| 20260902115314 | 13 | 186 | 4.8 | 6.4 | 0.00 | 0.00 | 0.00 | 94 | 1019.1 |
| 20260902114810 | 13 | 163 | 4.8 | 4.8 | 0.00 | 0.00 | 0.00 | 93 | 1019.4 |
| 20260902114306 | 13 | 138 | 0.0 | 0.0 | 0.00 | 0.00 | 0.00 | 92 | 1019.3 |
| 20260902113805 | 13 | 140 | 0.0 | 0.0 | 0.00 | 0.00 | 0.00 | 92 | 1019.3 |
| 20260902113300 | 13 | 155 | 1.6 | 1.6 | 0.00 | 0.00 | 0.00 | 92 | 1019.6 |
| 20260902112800 | 13 | 146 | 0.0 | 0.0 | 0.00 | 0.00 | 0.00 | 92 | 1019.6 |
| 20260902112257 | 13 | 142 | 0.0 | 0.0 | 0.00 | 0.00 | 0.00 | 93 | 1019.4 |
| 20260902111752 | 13 | 148 | 0.0 | 0.0 | 0.00 | 0.00 | 0.00 | 93 | 1019.3 |
| 20260902111249 | 12 | 126 | 0.0 | 1.6 | 0.00 | 0.00 | 0.00 | 94 | 1019.4 |
| 20260902110744 | 12 | 123 | 0.0 | 0.0 | 0.00 | 0.00 | 0.00 | 94 | 1019.4 |
| 20260902110239 | 12 | 132 | 0.0 | 0.0 | 0.00 | 0.00 | 0.00 | 94 | 1019.1 |
| 20260902105734 | 12 | 132 | 0.0 | 0.0 | 0.00 | 0.00 | 0.00 | 94 | 1019.4 |
| 20260902105229 | 12 | 121 | 0.0 | 0.0 | 0.00 | 0.00 | 0.00 | 94 | 1019.3 |
| 20260902104724 | 12 | 137 | 0.0 | 0.0 | 0.00 | 0.00 | 0.00 | 94 | 1019.2 |
| 20260902104221 | 12 | 143 | 0.0 | 0.0 | 0.00 | 0.00 | 0.00 | 95 | 1019.2 |
| 20260902103720 | 12 | 145 | 0.0 | 0.0 | 0.00 | 0.00 | 0.00 | 95 | 1019.4 |
| 20260902103214 | 12 | 150 | 0.0 | 0.0 | 0.00 | 0.00 | 0.00 | 94 | 1019.3 |
| 20260902102710 | 12 | 150 | 0.0 | 0.0 | 0.00 | 0.00 | 0.00 | 94 | 1019.3 |
| 20260902102207 | 12 | 149 | 0.0 | 0.0 | 0.00 | 0.00 | 0.00 | 94 | 1019.2 |
| 20260902101702 | 12 | 149 | 0.0 | 0.0 | 0.00 | 0.00 | 0.00 | 94 | 1019.4 |
| 20260902101156 | 12 | 149 | 0.0 | 0.0 | 0.00 | 0.00 | 0.00 | 94 | 1019.6 |
| 20260902100656 | 12 | 149 | 0.0 | 0.0 | 0.00 | 0.00 | 0.00 | 94 | 1019.7 |
| 20260902100150 | 12 | 149 | 0.0 | 0.0 | 0.00 | 0.00 | 0.00 | 94 | 1019.6 |
| 20260902095649 | 12 | 149 | 0.0 | 0.0 | 0.00 | 0.00 | 0.00 | 94 | 1019.3 |
| 20260902095144 | 12 | 155 | 0.0 | 0.0 | 0.00 | 0.00 | 0.00 | 94 | 1019.7 |
| 20260902094639 | 12 | 155 | 0.0 | 0.0 | 0.00 | 0.00 | 0.00 | 94 | 1019.2 |
| 20260902094136 | 12 | 144 | 0.0 | 0.0 | 0.00 | 0.00 | 0.00 | 94 | 1019.4 |
| 20260902093635 | 12 | 144 | 0.0 | 0.0 | 0.00 | 0.00 | 0.00 | 93 | 1019.3 |
| 20260902093130 | 13 | 144 | 0.0 | 0.0 | 0.00 | 0.00 | 0.00 | 93 | 1019.6 |
| 20260902092624 | 13 | 142 | 0.0 | 0.0 | 0.00 | 0.00 | 0.00 | 93 | 1019.6 |
| 20260902092120 | 13 | 148 | 0.0 | 0.0 | 0.00 | 0.00 | 0.00 | 93 | 1019.6 |
| 20260902091615 | 13 | 142 | 0.0 | 0.0 | 0.00 | 0.00 | 0.00 | 93 | 1019.6 |
| 20260902091111 | 13 | 142 | 0.0 | 0.0 | 0.00 | 0.00 | 0.00 | 93 | 1019.7 |
| 20260902090607 | 13 | 155 | 0.0 | 0.0 | 0.00 | 0.00 | 0.00 | 94 | 1019.8 |
| 20260902090105 | 13 | 156 | 0.0 | 0.0 | 0.00 | 0.00 | 0.00 | 93 | 1019.7 |
| 20260902085606 | 13 | 164 | 0.0 | 0.0 | 0.00 | 0.00 | 0.00 | 93 | 1019.7 |
| 20260902085101 | 13 | 145 | 0.0 | 0.0 | 0.00 | 0.00 | 0.00 | 93 | 1019.7 |
| 20260902084557 | 13 | 144 | 0.0 | 0.0 | 0.00 | 0.00 | 0.00 | 92 | 1019.6 |
| 20260902084053 | 13 | 144 | 0.0 | 0.0 | 0.00 | 0.00 | 0.00 | 92 | 1019.7 |
| 20260902083548 | 13 | 137 | 0.0 | 0.0 | 0.00 | 0.00 | 0.00 | 92 | 1019.7 |
| 20260902083047 | 13 | 156 | 0.0 | 0.0 | 0.00 | 0.00 | 0.00 | 92 | 1019.7 |
| 20260902082543 | 13 | 158 | 0.0 | 0.0 | 0.00 | 0.00 | 0.00 | 92 | 1019.7 |
| 20260902082039 | 13 | 149 | 0.0 | 0.0 | 0.00 | 0.00 | 0.00 | 92 | 1019.7 |
| 20260902081536 | 13 | 147 | 0.0 | 0.0 | 0.00 | 0.00 | 0.00 | 91 | 1019.6 |
| 20260902081035 | 13 | 153 | 0.0 | 0.0 | 0.00 | 0.00 | 0.00 | 91 | 1019.9 |
| 20260902080531 | 13 | 149 | 0.0 | 0.0 | 0.00 | 0.00 | 0.00 | 91 | 1019.7 |
| 20260902080027 | 14 | 146 | 0.0 | 0.0 | 0.00 | 0.00 | 0.00 | 90 | 1019.8 |
| 20260902075527 | 14 | 143 | 0.0 | 0.0 | 0.00 | 0.00 | 0.00 | 90 | 1019.7 |
| 20260902075023 | 15 | 136 | 0.0 | 0.0 | 0.00 | 0.00 | 0.00 | 91 | 1019.9 |
| 20260902074518 | 15 | 136 | 0.0 | 0.0 | 0.00 | 0.00 | 0.00 | 92 | 1019.8 |
| 20260902074013 | 15 | 171 | 0.0 | 0.0 | 0.00 | 0.00 | 0.00 | 93 | 1019.4 |
| 20260902073503 | 15 | 155 | 0.0 | 0.0 | 0.00 | 0.00 | 0.00 | 91 | 1019.4 |
| 20260902073000 | 14 | 197 | 0.0 | 0.0 | 0.00 | 0.00 | 0.00 | 91 | 1019.4 |
| 20260902072455 | 14 | 147 | 0.0 | 0.0 | 0.00 | 0.00 | 0.00 | 89 | 1019.7 |
| 20260902071951 | 14 | 152 | 0.0 | 0.0 | 0.00 | 0.00 | 0.00 | 89 | 1019.8 |
| 20260902071451 | 14 | 143 | 0.0 | 0.0 | 0.00 | 0.00 | 0.00 | 89 | 1019.2 |
| 20260902070947 | 15 | 171 | 0.0 | 0.0 | 0.00 | 0.00 | 0.00 | 89 | 1019.4 |
| 20260902070443 | 15 | 164 | 0.0 | 0.0 | 0.00 | 0.00 | 0.00 | 89 | 1019.6 |
| 20260902065941 | 15 | 157 | 0.0 | 0.0 | 0.00 | 0.00 | 0.00 | 90 | 1019.7 |
| 20260902065436 | 15 | 163 | 1.6 | 1.6 | 0.00 | 0.00 | 0.00 | 91 | 1019.4 |
| 20260902064932 | 15 | 165 | 0.0 | 0.0 | 0.00 | 0.00 | 0.00 | 89 | 1019.3 |
| 20260902064427 | 15 | 173 | 0.0 | 0.0 | 0.00 | 0.00 | 0.00 | 90 | 1019.6 |
| 20260902063923 | 15 | 157 | 0.0 | 0.0 | 0.00 | 0.00 | 0.00 | 91 | 1019.1 |
| 20260902063423 | 15 | 159 | 0.0 | 0.0 | 0.00 | 0.00 | 0.00 | 91 | 1019.3 |
| 20260902062917 | 15 | 149 | 0.0 | 0.0 | 0.00 | 0.00 | 0.00 | 91 | 1019.0 |
| 20260902062416 | 15 | 149 | 0.0 | 0.0 | 0.00 | 0.00 | 0.00 | 91 | 1019.1 |
| 20260902061911 | 15 | 149 | 0.0 | 0.0 | 0.00 | 0.00 | 0.00 | 91 | 1019.1 |
| 20260902061407 | 15 | 149 | 0.0 | 0.0 | 0.00 | 0.00 | 0.00 | 91 | 1019.1 |
| 20260902060903 | 15 | 149 | 0.0 | 0.0 | 0.00 | 0.00 | 0.00 | 90 | 1019.3 |
| 20260902060358 | 15 | 149 | 0.0 | 0.0 | 0.00 | 0.00 | 0.00 | 90 | 1019.2 |
| 20260902055854 | 15 | 149 | 0.0 | 0.0 | 0.00 | 0.00 | 0.00 | 91 | 1019.1 |
| 20260902055350 | 15 | 149 | 0.0 | 0.0 | 0.00 | 0.00 | 0.00 | 90 | 1019.1 |
| 20260902054845 | 15 | 149 | 0.0 | 0.0 | 0.00 | 0.00 | 0.00 | 90 | 1019.2 |
| 20260902054340 | 15 | 149 | 0.0 | 0.0 | 0.00 | 0.00 | 0.00 | 90 | 1019.1 |
| 20260902053836 | 15 | 149 | 0.0 | 0.0 | 0.00 | 0.00 | 0.00 | 90 | 1019.2 |
| 20260902053331 | 15 | 149 | 0.0 | 0.0 | 0.00 | 0.00 | 0.00 | 90 | 1019.2 |
| 20260902052830 | 15 | 149 | 0.0 | 0.0 | 0.00 | 0.00 | 0.00 | 89 | 1019.1 |
| 20260902052325 | 16 | 155 | 0.0 | 0.0 | 0.00 | 0.00 | 0.00 | 89 | 1019.2 |
| 20260902051820 | 15 | 162 | 0.0 | 0.0 | 0.00 | 0.00 | 0.00 | 90 | 1019.1 |
| 20260902051320 | 15 | 163 | 0.0 | 0.0 | 0.00 | 0.00 | 0.00 | 89 | 1019.3 |
| 20260902050814 | 15 | 164 | 0.0 | 0.0 | 0.00 | 0.00 | 0.00 | 89 | 1019.1 |